Location: K�ln
(50.9455°N, 6.9544°E)
Time: 21:54:41
(UTC+01:00)

ISS - Pass Details

Date: 09 January 2018
Orbit: 401 x 407 km, 51.6° (Epoch: 17 January)

Event Time Altitude Azimuth Distance (km) Brightness Sun altitude
Exits shadow 07:22:36 15° 275° (W) 1,189 -2.1 -10.5°
Maximum altitude 07:25:03 47° 205° (SSW) 551 -3.2 -10.1°
Drops below altitude 10° 07:28:13 10° 130° (SE) 1,464 0.4 -9.7°
Sets 07:30:20 0° 125° (SE) 2,322 2.0 -9.4°
